www.pogodaiklimat.ru

Погода и климат >> Архив погоды >> Россия >> Ямало-Ненецкий АО >> Антипаюта


АРХИВ ПОГОДЫ в Антипаюте

Время (UTC), дата Ветер
(напр.,м/с)
 
Видим.   Явления Облачность Т
(С)
Тd
(С)
f
(%)
Тe
(С)
Тes
(С)
Комфортность P
(гПа)
Po
(гПа)
Тmin
(С)
Tmax
(С)
R
(мм)
R24
(мм)
S
(см)
03 17.01 Ю 2 20 км 10/10 300 м
[St]
-22.0 -24.3 82 -28 -28 1011.0 1010.5 -29.7 106
06 17.01 Ю 2 20 км 10/10 300 м
[St]
-21.1 -23.3 82 -27 -27 1011.3 1010.8
12 17.01 ЮВ 4 20 км 10/10
[St]
-20.4 -22.5 83 -29 -29 1006.9 1006.4
18 17.01 ЮВ 8-12
{15}
2000 м снег {метель} 10/0
[As op]
-11.8 -13.0 91 -22 -22 995.2 994.8
06 18.01 Ю 7
{12}
4000 м слаб. снег 10/0
[As op]
-8.4 -9.3 93 -17 -17 987.3 986.9
12 18.01 ЮЗ 6
{10}
4000 м слаб. снег {метель} 10/0
[As op]
-9.6 -10.6 92 -18 -18 988.6 988.2
15 18.01 Ю 6 20 км позёмок {снег} ясно -13.6 -15.0 89 -23 -23 989.6 989.2 -7.3 0.7
18 18.01 Ю 6 20 км позёмок {снег} 10/0
[Cs]
-13.6 -15.0 89 -23 -23 990.1 989.7
03 19.01 ЮЗ 5 20 км 10/0
[Ac As]
-13.8 -15.2 89 -22 -22 988.0 987.6 -15.4 112
06 19.01 ЮЗ 3 20 км ясно -23.7 -26.2 80 -32 -32 опасность
обморожения
988.1 987.6 -23.7
09 19.01 Ю 3 20 км 10/10 300 м
[St]
-22.5 -24.8 81 -31 -31 опасность
обморожения
988.8 988.3
12 19.01 Ю 4 20 км ясно -23.0 -25.5 80 -33 -33 опасность
обморожения
989.4 988.9
15 19.01 ЮЗ 6 20 км 8/0
[Ci fib]
-23.4 -25.7 81 -35 -35 опасность
обморожения
990.1 989.6 -13.8
18 19.01 ЮЗ 6 20 км 6/0
[Cs]
-23.1 -25.5 81 -35 -35 опасность
обморожения
991.4 990.9
03 20.01 З 5 20 км ясно -27.5 -30.3 77 -39 -39 опасность
обморожения
999.3 998.8 -27.5
06 20.01 ЮЗ 4 20 км ясно -29.6 -32.7 74 -41 -41 опасность
обморожения
1002.2 1001.7 -29.7
09 20.01 З 4 20 км ясно -30.8 -34.1 73 -42 -42 опасность
обморожения
1005.3 1004.8
12 20.01 З 5 20 км ясно -31.1 -34.4 73 -44 -44 опасность
обморожения
1008.1 1007.6
15 20.01 З 3 20 км ясно -30.5 -33.8 73 -40 -40 опасность
обморожения
1009.8 1009.3 -27.5
18 20.01 Ю 3 20 км 3/0
[Ci fib]
-28.0 -30.9 76 -37 -37 опасность
обморожения
1010.8 1010.3
03 21.01 Ю 4 20 км ясно -21.8 -24.1 82 -31 -31 опасность
обморожения
1013.1 1012.6 -32.3 112
06 21.01 Ю 4 20 км ясно -27.0 -29.9 76 -38 -38 опасность
обморожения
1014.1 1013.6
12 21.01 В 3 20 км 8/0
[As trans]
-23.9 -26.4 80 -32 -32 опасность
обморожения
1014.0 1013.5
15 21.01 В 5 20 км 10/0
[As trans]
-21.0 -23.2 82 -31 -31 опасность
обморожения
1011.5 1011.0 -21.0
18 21.01 В 7-12
{12}
4000 м слаб. снег {метель} 10/0
[As op]
-18.8 -20.7 85 -30 -30 1008.7 1008.2
03 22.01 В 6-10
{13}
4000 м слаб. снег {метель} 10/0
[As op]
-16.7 -18.4 87 -27 -27 1002.7 1002.2 -21.0 0.9 117
06 22.01 ЮВ 5
{10}
20 км позёмок {снег} 10/10 600 м
[Sc]
-15.6 -17.2 87 -25 -25 1002.2 1001.7
12 22.01 Ю 4 20 км ясно -22.1 -24.4 82 -32 -32 опасность
обморожения
1005.1 1004.6
15 22.01 ЮВ 4 20 км ясно -26.2 -28.9 78 -37 -37 опасность
обморожения
1006.9 1006.4 -15.6 0.2
18 22.01 ЮВ 5 20 км ясно -26.8 -29.6 77 -39 -39 опасность
обморожения
1008.2 1007.7
03 23.01 ЮВ 3 20 км 10/10 600 м
[Sc]
-23.4 -25.9 80 -32 -32 опасность
обморожения
1010.6 1010.1 -26.8 117
06 23.01 В 2 20 км 8/8 600 м
[Sc]
-25.8 -28.5 78 -33 -33 опасность
обморожения
1011.4 1010.9
12 23.01 В 2 20 км 6/6 600 м
[Sc]
-29.2 -32.3 74 -37 -37 опасность
обморожения
1013.4 1012.9
15 23.01 В 2 20 км 8/8 600 м
[Sc]
-26.6 -29.4 77 -34 -34 опасность
обморожения
1014.5 1014.0 -23.0
18 23.01 В 2 20 км ясно -25.3 -28.0 78 -32 -32 опасность
обморожения
1015.6 1015.1

 

Местоположение метеостанции Антипаюта (Ямало-Ненецкий АО, Россия): широта 69.08 долгота 76.85 высота над уровнем моря 3 м.

В архиве по умолчанию представлена погода в Антипаюте за последнюю неделю. Архивные данные за месяц целиком и за предыдущие месяцы, начиная с января 2011 года, Вы можете получить, выбрав интересующий диапазон дат из раскрывающегося списка и нажав кнопку "Ввод!".


*Определитесь, кто Вы:
робот инопланетянин человек

Внимание! Время в таблицах - всемирное. Для получения местного времени необходимо прибавить поправку, которая равна 5 ч.

Смотрите также архив погоды в соседних городах и на ближайших метеорологических станциях:

Погода в Тазовском (Ямало-Ненецкий АО, Россия) (195 км)
Погода в Сеяхе (Ямало-Ненецкий АО, Россия) (207 км)
Погода в Гыде (Ямало-Ненецкий АО, Россия) (209 км)
Погода в Новом Порте (Ямало-Ненецкий АО, Россия) (225 км)
Погода в Карауле (Красноярский край, Россия) (269 км)
Погода в Ныде (Ямало-Ненецкий АО, Россия) (318 км)
Погода в Тамбее (Ямало-Ненецкий АО, Россия) (327 км)
Погода в Новом Уренгое (Ямало-Ненецкий АО, Россия) (331 км)
Погода в Уренгое (Ямало-Ненецкий АО, Россия) (354 км)
Погода в Пангодах (Ямало-Ненецкий АО, Россия) (375 км)

Пояснения к столбцам:

Ветер - указаны скорость ветра в м/с - средняя за 10 мин, порывы в срок и между сроками (в фигурных скобках) и направление, откуда дует ветер: С - северный, СВ - северо-восточный, В - восточный, ЮВ - юго-восточный, Ю - южный, ЮЗ - юго-западный, З - западный, СЗ - северо-западный.
Видимость - горизонтальная дальность видимости в метрах или километрах. При видимости от 1 до 10 км при отсутствии осадков обычно наблюдается дымка, при ухудшении видимости до 1 км и менее - туман. В сухую погоду видимость может ухудшаться дымом, пылью или мглою.
Явления - указаны атмосферные явления, наблюдавшиеся в срок или в последний час перед сроком; фигурными скобками обозначены явления, наблюдавшиеся между сроками (за 1-3 часа до срока); квадратными скобками обозначены град или гололедные отложения с указанием их диаметра в мм.
Облачность - указаны через наклонную черту общая и нижняя облачность в баллах и высота нижней границы облаков в метрах; квадратными скобками обозначены формы облаков: Ci - перистые, Cs - перисто-слоистые, Cc - перисто-кучевые, Ac - высококучевые, As - высокослоистые, Sc - слоисто-кучевые, Ns - слоисто-дождевые, Cu - кучевые, Cb - кучево-дождевые. Подробнее классификацию облаков см. в Атласе облаков (PDF).
T - Температура воздуха - температура, измеренная на высоте 2 м над землей.
Td - Температура точки росы - температура, при понижении до которой содержащийся в воздухе водяной пар достигнет насыщения.
f - Относительная влажность воздуха - влажноcть воздуха, измеренная на высоте 2 м над землей.
Te - Эффективная температура - температура, которую ощущает одетый по сезону человек в тени. Характеристика душности погоды. При расчете учитывается влияние влажности воздуха и скорости ветра на теплоощущения человека.
Tes - Эффективная температура на солнце - температура, которую ощущает человек, с поправкой на солнечный нагрев. Характеристика знойности погоды. Зависит от высоты солнца над горизонтом, облачности и скорости ветра. Ночью, в пасмурную погоду, а также при ветре 12 м/с и более поправка равна нулю.
P - Атмосферное давление - приведенное к уровню моря атмосферное давление.
Po - Атмосферное давление - измеренное на уровне метеостанции атмосферное давление.
Tmin - Минимальная температура - минимум температуры воздуха на высоте 2 м над землей.
Tmax - Максимальная температура - максимум температуры воздуха на высоте 2 м над землей.
R - Количество осадков - Количество выпавших осадков за период времени, мм. При наведении курсора мыши на число - период времени, за который выпало указанное количество осадков.
R24 - Количество осадков - Количество выпавших осадков за 24 часа, мм.
S - Снежный покров - Высота снежного покрова, см. При наведении курсора мыши на число - состояние снежного покрова и степень покрытия местности в баллах.